Precipitable_Water
0.73 0.72 0.83 0.93 0.84 0.83 0.78 0.76 0.78 0.80 0.79 0.72 0.71 0.68 0.65 0.62 0.61 0.62 0.61 0.54 0.53 0.59 0.66 0.72 0.74 0.77 0.59 0.47 0.46 0.68 0.73 0.67 0.53 0.40 0.32 0.32 0.29 0.31 0.30 0.35 0.37 0.29 0.28 0.34 0.38 0.38 0.42
0.83 0.81 0.75 0.72 0.71 0.75 0.82 0.77 0.76 0.77 0.72 0.70 0.73 0.72 0.69 0.65 0.62 0.61 0.60 0.56 0.52 0.52 0.59 0.66 0.75 0.75 0.56 0.36 0.53 0.75 0.72 0.65 0.51 0.39 0.35 0.37 0.31 0.36 0.37 0.36 0.36 0.36 0.37 0.36 0.38 0.38 0.44
0.77 0.79 0.82 0.81 0.72 0.66 0.68 0.75 0.68 0.68 0.77 0.83 0.75 0.68 0.66 0.67 0.67 0.62 0.59 0.57 0.52 0.51 0.53 0.63 0.74 0.71 0.51 0.37 0.43 0.75 0.73 0.71 0.52 0.44 0.38 0.40 0.39 0.38 0.39 0.33 0.39 0.37 0.32 0.32 0.35 0.39 0.50
0.64 0.71 0.73 0.74 0.80 0.78 0.68 0.65 0.68 0.70 0.65 0.64 0.69 0.73 0.66 0.62 0.60 0.61 0.60 0.56 0.52 0.51 0.53 0.61 0.71 0.65 0.42 0.42 0.46 0.50 0.62 0.64 0.61 0.50 0.47 0.49 0.47 0.38 0.36 0.38 0.33 0.32 0.28 0.26 0.34 0.46 0.54
0.61 0.58 0.60 0.62 0.63 0.64 0.67 0.63 0.62 0.63 0.64 0.61 0.60 0.64 0.61 0.65 0.61 0.56 0.54 0.52 0.48 0.46 0.56 0.68 0.60 0.54 0.39 0.60 0.45 0.39 0.52 0.54 0.60 0.53 0.49 0.50 0.44 0.34 0.34 0.27 0.23 0.28 0.23 0.26 0.31 0.44 0.51
0.53 0.58 0.60 0.59 0.60 0.60 0.62 0.62 0.62 0.59 0.61 0.59 0.59 0.56 0.59 0.59 0.61 0.58 0.53 0.46 0.33 0.43 0.61 0.86 0.74 0.48 0.47 0.42 0.44 0.52 0.48 0.52 0.57 0.49 0.44 0.41 0.36 0.27 0.26 0.26 0.21 0.25 0.27 0.30 0.33 0.46 0.56
0.56 0.57 0.58 0.61 0.60 0.62 0.62 0.62 0.61 0.62 0.63 0.60 0.61 0.57 0.55 0.54 0.58 0.54 0.49 0.36 0.33 0.49 0.69 0.56 0.53 0.38 0.38 0.53 0.60 0.48 0.50 0.47 0.55 0.49 0.35 0.37 0.30 0.22 0.23 0.26 0.32 0.31 0.28 0.27 0.35 0.45 0.51
0.53 0.55 0.58 0.60 0.60 0.61 0.61 0.62 0.63 0.63 0.62 0.61 0.59 0.56 0.57 0.53 0.58 0.55 0.48 0.27 0.36 0.58 0.37 0.48 0.50 0.54 0.54 0.58 0.49 0.48 0.47 0.43 0.45 0.40 0.40 0.33 0.28 0.27 0.29 0.33 0.33 0.34 0.30 0.26 0.32 0.46 0.43
0.51 0.53 0.57 0.59 0.60 0.62 0.65 0.64 0.65 0.65 0.64 0.65 0.64 0.59 0.56 0.53 0.57 0.53 0.38 0.30 0.31 0.53 0.35 0.25 0.27 0.26 0.28 0.33 0.39 0.42 0.44 0.40 0.42 0.39 0.36 0.31 0.28 0.35 0.38 0.38 0.35 0.32 0.30 0.24 0.27 0.39 0.43
0.52 0.55 0.57 0.58 0.60 0.62 0.64 0.65 0.66 0.66 0.66 0.66 0.65 0.66 0.59 0.54 0.47 0.52 0.38 0.54 0.54 0.64 0.19 0.17 0.13 0.18 0.22 0.24 0.28 0.39 0.52 0.41 0.45 0.38 0.38 0.38 0.39 0.38 0.40 0.42 0.38 0.27 0.31 0.27 0.29 0.30 0.26
0.50 0.53 0.54 0.57 0.62 0.65 0.66 0.67 0.67 0.68 0.68 0.66 0.67 0.67 0.62 0.53 0.51 0.44 0.64 0.60 0.68 0.49 0.05 0.12 0.17 0.25 0.24 0.19 0.25 0.32 0.44 0.46 0.39 0.43 0.42 0.36 0.36 0.37 0.38 0.41 0.39 0.27 0.32 0.33 0.33 0.32 0.30
0.48 0.51 0.53 0.56 0.63 0.65 0.67 0.69 0.71 0.72 0.71 0.71 0.69 0.70 0.68 0.53 0.47 0.52 0.69 0.70 0.61 0.18 0.08 0.09 0.23 0.22 0.25 0.25 0.25 0.31 0.36 0.43 0.43 0.42 0.45 0.41 0.45 0.39 0.39 0.42 0.39 0.32 0.33 0.34 0.33 0.31 0.23
0.46 0.50 0.52 0.56 0.64 0.67 0.68 0.70 0.74 0.77 0.75 0.75 0.72 0.71 0.69 0.60 0.36 0.62 0.69 0.61 0.20 0.08 0.08 0.08 0.20 0.25 0.22 0.24 0.25 0.28 0.30 0.30 0.30 0.29 0.31 0.39 0.39 0.42 0.42 0.37 0.41 0.34 0.32 0.27 0.23 0.23 0.20
0.46 0.49 0.52 0.57 0.62 0.67 0.69 0.71 0.75 0.78 0.79 0.77 0.75 0.72 0.72 0.66 0.55 0.63 0.59 0.43 0.15 0.10 0.08 0.12 0.14 0.32 0.25 0.23 0.26 0.29 0.30 0.28 0.33 0.34 0.32 0.30 0.29 0.37 0.41 0.39 0.37 0.30 0.31 0.27 0.19 0.20 0.22
0.43 0.49 0.53 0.57 0.65 0.69 0.70 0.73 0.76 0.79 0.80 0.79 0.78 0.71 0.66 0.67 0.63 0.64 0.46 0.25 0.15 0.14 0.13 0.10 0.17 0.21 0.22 0.32 0.29 0.29 0.29 0.28 0.33 0.34 0.29 0.30 0.29 0.42 0.40 0.41 0.42 0.31 0.31 0.34 0.28 0.34 0.29
0.43 0.49 0.54 0.59 0.69 0.72 0.73 0.75 0.78 0.80 0.82 0.82 0.71 0.64 0.60 0.70 0.70 0.59 0.40 0.21 0.15 0.16 0.13 0.16 0.14 0.18 0.21 0.29 0.38 0.35 0.32 0.31 0.32 0.35 0.39 0.34 0.31 0.39 0.41 0.42 0.43 0.35 0.39 0.33 0.32 0.24 0.21
0.43 0.50 0.57 0.66 0.70 0.72 0.74 0.77 0.79 0.82 0.83 0.85 0.69 0.50 0.63 0.72 0.70 0.48 0.26 0.20 0.20 0.26 0.25 0.17 0.15 0.16 0.21 0.24 0.29 0.29 0.37 0.37 0.33 0.35 0.38 0.37 0.35 0.35 0.42 0.37 0.36 0.34 0.31 0.36 0.37 0.38 0.28
0.48 0.56 0.63 0.71 0.71 0.74 0.75 0.77 0.78 0.81 0.83 0.80 0.63 0.40 0.68 0.71 0.41 0.38 0.25 0.28 0.31 0.25 0.26 0.23 0.18 0.18 0.20 0.25 0.26 0.27 0.32 0.40 0.51 0.46 0.35 0.39 0.36 0.32 0.36 0.45 0.45 0.40 0.36 0.33 0.29 0.28 0.33
0.57 0.64 0.70 0.72 0.72 0.74 0.75 0.77 0.78 0.81 0.83 0.74 0.53 0.51 0.70 0.63 0.30 0.27 0.30 0.26 0.29 0.27 0.25 0.25 0.22 0.19 0.21 0.21 0.24 0.32 0.39 0.50 0.55 0.55 0.45 0.41 0.34 0.29 0.31 0.36 0.41 0.38 0.40 0.38 0.35 0.33 0.28
0.66 0.70 0.71 0.71 0.72 0.74 0.74 0.76 0.79 0.80 0.82 0.75 0.55 0.38 0.50 0.52 0.42 0.30 0.26 0.24 0.24 0.34 0.30 0.27 0.24 0.25 0.19 0.22 0.29 0.25 0.33 0.43 0.55 0.57 0.60 0.57 0.37 0.30 0.25 0.30 0.38 0.37 0.38 0.38 0.36 0.30 0.29
0.70 0.70 0.69 0.70 0.72 0.73 0.74 0.76 0.77 0.80 0.81 0.73 0.55 0.41 0.44 0.32 0.31 0.35 0.35 0.30 0.25 0.25 0.31 0.30 0.23 0.20 0.17 0.17 0.22 0.23 0.31 0.38 0.47 0.61 0.59 0.57 0.39 0.34 0.31 0.35 0.38 0.42 0.40 0.39 0.35 0.33 0.28
0.70 0.70 0.71 0.71 0.72 0.72 0.75 0.76 0.75 0.75 0.81 0.65 0.48 0.43 0.48 0.38 0.41 0.37 0.37 0.28 0.25 0.26 0.27 0.26 0.22 0.19 0.23 0.20 0.18 0.21 0.29 0.34 0.41 0.56 0.59 0.61 0.43 0.38 0.34 0.34 0.33 0.36 0.41 0.40 0.39 0.36 0.38
0.69 0.70 0.70 0.70 0.69 0.68 0.69 0.69 0.70 0.70 0.74 0.62 0.65 0.61 0.50 0.41 0.39 0.36 0.28 0.26 0.27 0.35 0.35 0.34 0.29 0.26 0.20 0.19 0.30 0.35 0.37 0.40 0.43 0.46 0.54 0.57 0.50 0.39 0.29 0.38 0.35 0.30 0.34 0.37 0.38 0.40 0.38
0.68 0.66 0.63 0.61 0.60 0.60 0.61 0.62 0.65 0.67 0.73 0.68 0.64 0.59 0.47 0.36 0.39 0.32 0.32 0.33 0.32 0.37 0.33 0.36 0.36 0.30 0.23 0.31 0.39 0.46 0.44 0.46 0.50 0.51 0.60 0.49 0.51 0.46 0.32 0.36 0.28 0.32 0.40 0.41 0.37 0.39 0.39
0.60 0.59 0.60 0.62 0.64 0.65 0.64 0.64 0.62 0.60 0.66 0.65 0.66 0.58 0.49 0.37 0.39 0.37 0.35 0.33 0.34 0.40 0.38 0.37 0.36 0.39 0.41 0.32 0.25 0.27 0.30 0.34 0.37 0.46 0.53 0.54 0.50 0.43 0.34 0.32 0.37 0.37 0.38 0.36 0.34 0.32 0.38
0.63 0.65 0.66 0.66 0.66 0.65 0.65 0.63 0.62 0.60 0.60 0.63 0.63 0.67 0.55 0.42 0.39 0.36 0.34 0.35 0.32 0.34 0.36 0.38 0.41 0.46 0.42 0.31 0.24 0.23 0.21 0.24 0.26 0.32 0.48 0.46 0.55 0.45 0.43 0.32 0.25 0.35 0.44 0.44 0.40 0.26 0.39
0.64 0.63 0.61 0.60 0.59 0.61 0.61 0.62 0.64 0.63 0.61 0.60 0.57 0.61 0.55 0.42 0.49 0.47 0.37 0.33 0.37 0.37 0.34 0.35 0.39 0.40 0.44 0.29 0.24 0.20 0.23 0.33 0.27 0.28 0.30 0.31 0.32 0.37 0.39 0.38 0.35 0.44 0.45 0.45 0.30 0.30 0.41
0.60 0.62 0.60 0.59 0.61 0.60 0.61 0.63 0.64 0.64 0.64 0.62 0.56 0.62 0.50 0.44 0.50 0.52 0.49 0.42 0.40 0.40 0.32 0.33 0.39 0.39 0.37 0.29 0.26 0.29 0.25 0.34 0.32 0.36 0.32 0.28 0.26 0.32 0.44 0.36 0.31 0.56 0.48 0.33 0.37 0.43 0.46
0.62 0.60 0.58 0.58 0.61 0.63 0.63 0.64 0.64 0.66 0.68 0.65 0.51 0.62 0.60 0.47 0.51 0.60 0.58 0.57 0.53 0.46 0.39 0.40 0.37 0.39 0.39 0.31 0.30 0.32 0.29 0.31 0.30 0.26 0.41 0.29 0.30 0.29 0.35 0.46 0.59 0.59 0.61 0.61 0.59 0.55 0.57
Wind_Speed
36 37 37 38 37 36 35 35 34 33 32 32 31 30 29 28 27 27 26 26 25 25 25 25 25 24 21 18 19 17 15 13 12 11 10 10 9 8 10 12 13 8 9 10 10 9 6
37 36 35 35 34 34 35 34 35 35 34 34 33 32 31 30 29 28 27 26 26 25 25 25 24 23 20 20 17 16 15 14 13 12 11 12 10 11 13 12 11 10 11 10 9 10 6
31 32 35 35 34 33 32 31 34 34 35 35 34 33 32 31 30 29 28 28 27 26 25 25 24 23 22 23 18 14 15 14 14 13 12 11 12 11 11 11 10 13 11 9 10 12 5
33 32 31 31 33 34 33 32 31 31 31 34 33 33 32 31 30 30 29 29 28 28 26 25 24 23 22 22 21 21 19 17 16 15 15 13 11 11 10 11 11 10 9 8 10 4 7
31 32 32 32 32 33 32 33 33 32 31 31 31 32 32 32 31 30 30 30 30 28 27 26 23 21 22 19 19 21 20 18 16 16 15 14 11 11 12 10 10 7 8 11 13 10 8
31 31 31 32 32 32 32 33 33 33 32 31 30 30 31 31 31 31 30 30 29 28 27 25 25 22 21 17 17 16 20 18 17 15 14 14 11 11 10 8 8 8 7 9 8 5 7
32 33 33 33 33 33 33 33 33 33 32 32 31 31 30 31 30 30 28 25 23 22 23 24 23 23 21 19 18 16 17 19 18 16 15 14 12 13 13 14 15 13 14 11 8 11 9
35 34 34 34 35 35 35 35 34 34 33 32 32 31 31 30 30 29 28 25 24 22 27 28 30 31 31 25 22 20 19 19 20 19 16 17 18 17 16 17 17 17 15 13 10 6 7
38 38 37 37 36 36 35 34 35 34 34 33 32 31 30 29 29 28 29 28 28 27 27 29 32 31 28 28 27 25 21 22 20 20 20 20 16 18 18 18 18 17 13 11 9 8 13
40 39 39 39 38 37 37 36 35 35 34 34 33 31 30 29 27 26 25 25 26 26 25 26 25 27 27 27 26 29 24 23 22 24 22 22 22 21 20 20 16 15 12 12 12 10 11
43 42 42 41 40 39 38 38 37 36 35 34 34 32 30 28 27 24 23 24 24 21 20 20 20 21 21 28 19 23 30 25 27 24 21 23 18 19 20 16 14 15 12 10 10 10 10
45 44 44 43 43 42 41 40 38 37 36 35 34 34 32 30 28 27 26 24 23 20 25 20 19 20 17 27 25 18 23 28 24 26 28 25 23 23 21 18 16 15 13 12 11 11 10
46 46 45 44 44 43 42 41 39 38 37 35 34 34 33 32 27 26 25 24 23 27 23 24 21 21 22 21 26 26 22 27 26 25 27 26 28 24 21 18 17 16 12 10 9 9 11
48 46 45 44 44 43 41 40 39 37 36 35 34 33 33 32 31 27 25 27 29 31 35 18 17 19 23 23 25 25 28 25 30 26 17 24 24 26 21 22 17 19 15 12 11 8 10
47 46 44 43 42 40 39 39 38 36 35 33 32 32 32 30 30 28 27 31 33 31 32 35 25 24 25 23 21 25 28 30 27 32 27 21 28 18 26 21 21 19 17 16 13 10 9
45 44 43 42 40 39 38 37 35 35 33 31 30 30 30 28 29 28 28 36 36 39 35 29 29 26 23 20 21 22 23 22 30 31 31 24 19 28 24 24 23 22 16 14 14 12 13
42 42 41 39 38 37 36 35 34 34 33 31 29 27 27 28 27 28 30 29 31 32 31 38 33 32 29 25 22 20 22 27 22 28 30 31 28 22 22 27 26 20 21 18 15 15 13
41 40 40 38 37 36 36 36 35 34 33 32 29 27 26 29 26 27 32 25 23 22 27 30 32 34 34 30 27 24 23 26 17 19 28 30 23 28 30 22 22 26 25 23 17 15 15
39 40 38 38 38 38 37 37 37 37 37 34 30 28 30 32 29 32 31 35 33 29 26 21 28 30 30 34 27 25 23 23 21 19 20 28 31 30 25 26 27 30 28 23 20 18 20
40 39 39 39 39 39 39 39 39 39 41 40 32 29 29 37 36 36 35 36 35 27 33 32 27 26 32 32 31 31 28 23 23 23 24 22 32 34 35 23 22 22 24 25 24 20 19
40 40 40 39 39 40 40 40 41 42 43 43 38 36 35 35 41 39 36 28 36 32 30 27 30 32 31 28 31 30 27 26 23 24 23 22 27 37 36 32 27 27 31 29 27 26 24
39 39 39 39 39 39 39 38 40 41 44 46 40 38 38 38 39 39 38 41 39 33 33 33 32 29 28 31 35 29 25 25 21 23 22 23 27 28 28 36 36 32 30 30 29 23 24
39 39 38 38 39 39 40 41 42 42 45 43 44 44 39 41 39 39 44 45 41 35 33 35 32 30 32 34 26 28 28 29 27 22 20 23 22 29 33 25 28 33 36 30 27 29 24
40 40 42 42 43 43 44 44 45 46 48 46 44 43 43 38 45 46 45 44 42 37 37 31 34 32 33 23 24 22 21 25 29 27 23 20 20 25 27 26 27 33 30 33 28 28 26
42 43 44 44 45 45 46 47 48 48 49 50 41 44 42 44 44 45 45 42 42 39 39 38 37 30 24 24 28 25 23 25 30 28 27 18 17 21 25 31 26 30 26 27 29 29 25
42 43 43 45 46 47 49 49 49 50 51 50 47 45 37 40 43 46 42 42 37 37 39 39 38 32 26 25 26 26 24 25 24 22 25 24 18 17 19 25 32 23 31 26 20 27 26
40 41 42 44 45 45 46 48 49 49 51 49 46 46 41 31 32 42 40 39 37 33 33 34 33 30 29 28 25 27 26 26 23 19 21 17 18 18 25 22 23 23 23 21 23 21 20
35 35 38 40 42 42 43 45 47 49 49 49 46 46 42 37 28 32 39 32 35 33 31 29 29 33 29 28 26 25 26 26 25 24 21 20 18 17 15 24 23 12 20 27 23 22 22
30 30 31 31 32 35 36 40 43 48 49 48 39 43 39 36 32 29 29 34 32 33 29 28 31 29 30 29 28 26 26 25 34 26 19 21 21 17 17 20 19 20 18 20 17 19 20
Wind_Direction
275 271 269 268 267 266 267 266 266 265 265 266 268 269 270 271 273 274 275 277 279 278 278 279 281 284 284 277 270 275 274 271 269 267 267 267 273 284 296 307 317 285 288 290 295 308 319
274 273 271 269 269 267 266 267 265 266 266 265 266 268 268 269 270 272 273 275 277 278 276 276 278 280 273 272 269 264 267 264 261 258 262 260 268 283 299 302 310 301 294 291 285 289 297
280 275 271 269 269 268 267 269 267 266 266 265 265 267 267 267 268 270 271 273 274 276 276 274 274 273 267 262 265 257 264 262 252 251 254 260 271 287 299 307 305 305 304 290 276 275 282
277 276 276 272 270 270 269 268 269 268 267 265 265 264 265 266 267 268 270 271 271 272 272 270 270 268 264 267 264 257 255 255 247 246 250 261 280 277 282 293 300 302 295 282 291 255 289
281 277 276 274 272 271 271 269 268 268 268 266 265 264 263 265 266 268 270 271 270 269 268 265 264 260 265 268 259 253 247 244 241 244 249 258 268 269 274 286 297 286 280 281 288 262 279
282 280 278 276 274 272 271 270 269 267 267 267 267 266 265 265 265 266 269 271 267 265 262 258 257 260 257 259 255 253 239 239 236 238 246 249 259 259 267 264 264 282 287 301 284 273 275
282 281 279 277 275 273 271 270 269 268 267 266 266 267 267 265 266 266 268 265 260 258 255 251 251 250 259 259 259 245 239 232 233 234 235 242 248 250 253 252 255 276 289 291 272 269 263
284 282 280 278 276 274 272 270 268 267 266 265 265 265 266 266 265 264 261 255 254 262 262 255 254 253 254 254 255 253 231 228 229 235 232 240 245 245 250 257 263 271 280 279 293 257 255
283 282 280 279 277 275 272 270 268 267 265 264 264 264 264 265 264 261 254 251 256 267 262 261 254 253 246 243 243 245 229 228 232 236 232 236 242 238 245 257 264 268 271 275 265 266 261
282 281 280 279 276 273 272 270 268 267 265 263 262 261 262 263 261 259 253 252 254 258 263 260 255 250 240 236 245 234 233 227 235 234 236 243 242 246 252 257 254 265 267 259 261 273 255
282 281 279 278 275 272 271 269 267 266 265 263 261 259 258 256 258 255 253 255 253 246 262 256 247 240 233 224 233 232 230 233 230 233 231 240 242 241 246 254 249 257 256 264 265 270 270
281 280 279 277 274 271 269 267 266 264 263 261 259 256 255 254 253 249 255 250 239 239 248 253 242 234 230 224 235 240 226 230 234 235 241 245 241 242 245 249 250 248 251 261 268 261 272
280 279 277 276 273 270 267 265 264 262 260 259 257 254 251 250 248 250 249 239 235 237 244 250 243 234 236 231 231 235 231 225 228 228 236 240 244 242 241 244 243 245 247 252 267 265 255
278 277 276 275 272 268 265 262 260 259 257 256 253 250 248 247 244 244 241 234 239 243 238 243 238 241 236 236 235 232 231 231 229 230 235 234 241 235 234 233 235 236 233 230 245 251 258
275 274 273 274 270 265 261 258 256 254 253 250 248 245 245 243 237 236 237 233 241 242 239 240 249 256 254 237 239 230 234 237 238 228 229 231 239 239 234 235 228 234 237 232 243 260 257
274 271 270 271 266 261 257 255 253 249 247 244 242 241 240 235 230 231 236 241 248 240 243 245 238 240 248 245 241 232 231 236 236 230 229 237 244 236 239 230 235 229 233 237 241 238 249
272 269 268 267 262 258 254 251 249 245 241 236 235 238 232 223 223 228 236 241 243 243 240 238 241 240 245 246 246 253 246 240 235 232 228 230 236 242 232 228 228 231 232 234 235 233 245
272 268 267 262 260 255 253 248 246 240 234 229 230 233 226 213 222 229 232 227 237 238 232 240 237 240 241 245 248 250 246 236 250 247 227 227 229 234 239 239 236 228 228 228 231 234 247
270 268 264 260 258 255 251 248 243 236 229 226 230 231 225 218 228 230 235 237 241 243 240 242 236 235 237 242 245 234 242 239 242 249 245 230 228 233 240 236 235 227 227 228 234 240 237
271 266 264 261 258 254 251 247 240 235 230 224 227 228 229 227 232 231 231 237 238 242 240 243 248 247 243 242 240 242 240 244 248 245 258 251 225 226 229 234 226 233 230 233 237 238 242
270 267 264 260 257 254 249 245 240 234 228 223 226 231 229 229 231 232 231 238 238 238 238 234 242 242 240 239 241 242 238 242 246 240 249 240 236 230 231 228 230 227 231 239 240 238 240
270 267 264 260 256 252 247 241 236 232 227 226 226 229 231 235 231 229 232 233 237 236 235 235 239 241 238 240 237 244 240 235 237 233 245 243 240 228 231 226 226 231 232 231 239 241 242
269 266 263 260 255 251 246 241 237 233 225 227 228 230 231 233 229 227 231 236 238 236 241 237 240 237 239 239 244 246 241 229 228 229 243 245 245 226 231 227 227 235 232 240 238 241 246
269 266 264 260 256 252 247 243 239 234 229 229 231 230 228 234 229 232 234 235 238 236 237 241 235 235 238 238 236 239 237 230 227 229 232 237 256 232 224 221 227 238 233 237 240 240 247
271 268 265 260 256 252 247 243 240 235 230 226 230 227 228 231 231 231 232 235 238 236 235 236 238 238 234 231 230 237 241 234 232 234 228 233 244 232 222 223 232 240 233 227 231 241 241
274 270 265 262 258 252 247 243 238 234 229 227 227 224 227 231 232 228 229 229 232 232 236 236 234 234 231 231 225 230 234 233 233 233 226 227 235 229 231 223 226 230 232 234 236 245 240
276 271 268 263 257 250 245 239 235 230 225 224 225 222 223 227 229 222 224 225 224 226 229 229 226 227 222 224 227 225 228 225 227 230 221 232 234 240 240 234 239 234 225 228 233 241 245
276 274 270 264 254 248 242 236 231 225 221 218 220 218 219 223 230 224 220 222 218 222 224 225 223 221 222 218 222 226 223 223 225 227 225 227 228 223 239 226 232 244 239 229 240 245 248
278 279 273 263 247 240 235 230 225 217 212 207 212 208 213 217 219 220 216 220 222 221 222 222 220 215 217 214 222 223 225 224 225 235 234 233 230 232 224 229 232 249 249 244 243 251 253